| time (UTC) | temp F | wind direction | speed knots | gust knots | rain 1hr in | rain 24hr in | rain mn in | humidity % | barometer mb |
| 20260902071717 | 60 | 197 | 0.0 | 0.0 | 0.00 | 0.37 | 0.00 | 98 | 1020.1 |
| 20260902070215 | 60 | 196 | 0.0 | 0.0 | 0.00 | 0.37 | 0.00 | 98 | 1020.0 |
| 20260902064714 | 61 | 197 | 0.0 | 0.0 | 0.00 | 0.37 | 0.00 | 97 | 1020.1 |
| 20260902063216 | 61 | 196 | 0.0 | 0.0 | 0.00 | 0.37 | 0.00 | 98 | 1020.2 |
| 20260902061715 | 61 | 196 | 0.0 | 0.0 | 0.00 | 0.37 | 0.00 | 98 | 1019.9 |
| 20260902060214 | 61 | 203 | 0.0 | 0.0 | 0.00 | 0.37 | 0.00 | 98 | 1019.6 |
| 20260902055418 | 62 | 203 | 0.0 | 0.0 | 0.00 | 0.37 | 0.00 | 98 | 1019.7 |
| 20260902053210 | 62 | 203 | 0.0 | 0.0 | 0.00 | 0.37 | 0.00 | 98 | 1019.6 |
| 20260902051711 | 62 | 197 | 0.0 | 0.0 | 0.00 | 0.37 | 0.00 | 98 | 1019.5 |
| 20260902050210 | 62 | 197 | 0.0 | 0.0 | 0.00 | 0.37 | 0.00 | 98 | 1019.4 |
| 20260902044708 | 62 | 197 | 0.0 | 0.0 | 0.00 | 0.37 | 0.00 | 98 | 1019.3 |
| 20260902043208 | 62 | 197 | 0.0 | 0.0 | 0.00 | 0.37 | 0.00 | 97 | 1019.2 |
| 20260902041706 | 62 | 197 | 0.0 | 0.0 | 0.00 | 0.37 | 0.00 | 97 | 1019.1 |
| 20260902040205 | 62 | 197 | 0.0 | 0.0 | 0.01 | 0.37 | 0.00 | 97 | 1019.0 |
| 20260902035353 | 62 | 189 | 0.0 | 1.7 | 0.01 | 0.37 | 0.37 | 97 | 1018.9 |
| 20260902033204 | 62 | 198 | 0.9 | 4.3 | 0.01 | 0.37 | 0.37 | 97 | 1018.7 |
| 20260902031701 | 62 | 198 | 0.0 | 0.0 | 0.01 | 0.37 | 0.37 | 98 | 1018.7 |
| 20260902030203 | 62 | 202 | 0.0 | 0.0 | 0.00 | 0.36 | 0.36 | 97 | 1018.8 |
| 20260902024701 | 62 | 202 | 0.0 | 0.0 | 0.00 | 0.36 | 0.36 | 97 | 1018.8 |
| 20260902023857 | 62 | 202 | 0.0 | 0.0 | 0.00 | 0.36 | 0.36 | 97 | 1018.7 |
| 20260902021702 | 62 | 202 | 0.0 | 2.6 | 0.00 | 0.36 | 0.36 | 97 | 1018.6 |
| 20260902020859 | 62 | 202 | 0.0 | 2.6 | 0.01 | 0.36 | 0.36 | 97 | 1018.6 |
| 20260902014659 | 62 | 197 | 0.0 | 3.5 | 0.02 | 0.36 | 0.36 | 97 | 1018.3 |
| 20260902013159 | 63 | 192 | 0.0 | 0.0 | 0.02 | 0.36 | 0.36 | 97 | 1018.4 |
| 20260902011658 | 63 | 190 | 0.0 | 0.0 | 0.03 | 0.36 | 0.36 | 97 | 1018.4 |
| 20260902010851 | 63 | 232 | 0.0 | 0.0 | 0.02 | 0.35 | 0.35 | 97 | 1018.4 |
| 20260902004659 | 63 | 232 | 0.0 | 0.0 | 0.01 | 0.34 | 0.34 | 97 | 1018.5 |
| 20260902003157 | 63 | 232 | 0.0 | 0.0 | 0.01 | 0.34 | 0.34 | 96 | 1018.4 |
| 20260902001653 | 63 | 232 | 0.0 | 0.0 | 0.00 | 0.33 | 0.33 | 97 | 1018.3 |
| 20260902001602 | 63 | 232 | 0.0 | 0.0 | 0.00 | 0.33 | 0.33 | 96 | 1018.1 |
| 20260901233152 | 64 | 232 | 0.0 | 0.0 | 0.00 | 0.33 | 0.33 | 96 | 1017.8 |
| 20260901231650 | 64 | 232 | 0.0 | 0.0 | 0.00 | 0.33 | 0.33 | 96 | 1017.7 |
| 20260901230149 | 64 | 232 | 0.0 | 0.0 | 0.00 | 0.33 | 0.33 | 95 | 1017.8 |
| 20260901224648 | 64 | 232 | 0.0 | 0.0 | 0.00 | 0.33 | 0.33 | 96 | 1017.8 |
| 20260901223146 | 65 | 232 | 0.0 | 0.0 | 0.00 | 0.33 | 0.33 | 95 | 1017.5 |
| 20260901222336 | 65 | 232 | 0.0 | 0.0 | 0.00 | 0.33 | 0.33 | 95 | 1017.5 |
| 20260901220144 | 65 | 232 | 0.0 | 0.0 | 0.00 | 0.33 | 0.33 | 95 | 1017.7 |
| 20260901214644 | 65 | 232 | 0.0 | 0.0 | 0.00 | 0.33 | 0.33 | 95 | 1017.5 |
| 20260901213849 | 65 | 232 | 0.0 | 0.0 | 0.00 | 0.33 | 0.33 | 94 | 1017.4 |
| 20260901211638 | 65 | 232 | 0.0 | 0.0 | 0.00 | 0.33 | 0.33 | 93 | 1017.3 |
| 20260901210136 | 65 | 232 | 0.0 | 0.0 | 0.00 | 0.33 | 0.33 | 94 | 1017.1 |
| 20260901204633 | 65 | 232 | 0.0 | 0.0 | 0.00 | 0.33 | 0.33 | 94 | 1017.2 |
| 20260901203132 | 65 | 232 | 0.0 | 0.0 | 0.00 | 0.33 | 0.33 | 92 | 1017.1 |
| 20260901201629 | 65 | 246 | 0.0 | 0.0 | 0.00 | 0.33 | 0.33 | 90 | 1017.0 |
| 20260901200127 | 65 | 248 | 0.0 | 0.0 | 0.01 | 0.33 | 0.33 | 93 | 1017.1 |
| 20260901194627 | 65 | 248 | 0.0 | 0.0 | 0.01 | 0.33 | 0.33 | 91 | 1017.2 |
| 20260901193128 | 65 | 248 | 0.0 | 0.0 | 0.01 | 0.33 | 0.33 | 90 | 1017.2 |
| 20260901191627 | 65 | 248 | 0.0 | 0.0 | 0.01 | 0.33 | 0.33 | 90 | 1017.1 |
| 20260901190126 | 65 | 248 | 0.0 | 0.0 | 0.00 | 0.32 | 0.32 | 90 | 1017.3 |
| 20260901184626 | 65 | 252 | 0.0 | 0.0 | 0.00 | 0.32 | 0.32 | 89 | 1017.4 |
| 20260901183123 | 64 | 252 | 0.0 | 0.0 | 0.00 | 0.32 | 0.32 | 89 | 1017.3 |
| 20260901181623 | 64 | 252 | 0.0 | 0.0 | 0.00 | 0.32 | 0.32 | 94 | 1017.4 |
| 20260901180816 | 63 | 329 | 0.0 | 0.0 | 0.00 | 0.32 | 0.32 | 95 | 1017.3 |
| 20260901174622 | 63 | 329 | 0.0 | 0.0 | 0.00 | 0.32 | 0.32 | 94 | 1017.3 |
| 20260901173122 | 63 | 329 | 0.0 | 0.0 | 0.00 | 0.32 | 0.32 | 91 | 1017.2 |
| 20260901171623 | 62 | 329 | 0.0 | 0.0 | 0.00 | 0.32 | 0.32 | 95 | 1017.2 |
| 20260901170123 | 62 | 329 | 0.0 | 0.0 | 0.00 | 0.32 | 0.32 | 96 | 1017.2 |
| 20260901165319 | 62 | 329 | 0.0 | 0.0 | 0.00 | 0.32 | 0.32 | 95 | 1017.4 |
| 20260901163819 | 62 | 329 | 0.0 | 0.0 | 0.00 | 0.32 | 0.32 | 96 | 1017.4 |
| 20260901161620 | 62 | 329 | 0.0 | 0.0 | 0.00 | 0.32 | 0.32 | 96 | 1017.3 |
| 20260901160117 | 61 | 329 | 0.0 | 0.0 | 0.00 | 0.32 | 0.32 | 97 | 1017.3 |
| 20260901154616 | 61 | 329 | 0.0 | 0.0 | 0.00 | 0.32 | 0.32 | 97 | 1017.4 |
| 20260901153809 | 61 | 329 | 0.0 | 0.0 | 0.00 | 0.32 | 0.32 | 96 | 1017.8 |
| 20260901152317 | 61 | 329 | 0.0 | 0.0 | 0.00 | 0.32 | 0.32 | 97 | 1018.0 |
| 20260901150118 | 61 | 329 | 0.0 | 0.0 | 0.00 | 0.32 | 0.32 | 98 | 1017.9 |
| 20260901144614 | 60 | 329 | 0.0 | 0.0 | 0.01 | 0.32 | 0.32 | 97 | 1017.8 |
| 20260901143115 | 60 | 329 | 0.0 | 0.0 | 0.01 | 0.32 | 0.32 | 97 | 1017.8 |
| 20260901141612 | 60 | 329 | 0.0 | 0.0 | 0.02 | 0.32 | 0.32 | 97 | 1017.3 |
| 20260901140112 | 60 | 329 | 0.0 | 0.0 | 0.02 | 0.32 | 0.32 | 98 | 1017.1 |
| 20260901135314 | 60 | 329 | 0.0 | 0.0 | 0.02 | 0.31 | 0.31 | 98 | 1017.4 |
| 20260901133111 | 59 | 329 | 0.0 | 0.0 | 0.03 | 0.31 | 0.31 | 97 | 1017.4 |
| 20260901131608 | 59 | 329 | 0.0 | 0.0 | 0.04 | 0.30 | 0.30 | 98 | 1017.9 |
| 20260901130109 | 59 | 329 | 0.0 | 0.0 | 0.07 | 0.30 | 0.30 | 97 | 1017.8 |
| 20260901124606 | 59 | 329 | 0.0 | 0.0 | 0.10 | 0.29 | 0.29 | 97 | 1017.8 |
| 20260901123105 | 58 | 329 | 0.0 | 0.0 | 0.13 | 0.28 | 0.28 | 97 | 1018.0 |
| 20260901121603 | 58 | 329 | 0.0 | 0.0 | 0.15 | 0.26 | 0.26 | 97 | 1017.9 |
| 20260901120059 | 58 | 329 | 0.0 | 0.0 | 0.16 | 0.23 | 0.23 | 97 | 1018.0 |
| 20260901114559 | 58 | 329 | 0.0 | 0.0 | 0.14 | 0.19 | 0.19 | 97 | 1018.1 |
| 20260901113058 | 58 | 329 | 0.0 | 0.0 | 0.12 | 0.15 | 0.15 | 97 | 1017.8 |
| 20260901111601 | 58 | 329 | 0.0 | 0.0 | 0.10 | 0.11 | 0.11 | 97 | 1017.9 |
| 20260901110100 | 58 | 329 | 0.0 | 0.0 | 0.07 | 0.07 | 0.07 | 96 | 1017.8 |
| 20260901104557 | 58 | 329 | 0.0 | 0.0 | 0.05 | 0.05 | 0.05 | 96 | 1017.4 |
| 20260901103057 | 59 | 329 | 0.0 | 0.0 | 0.03 | 0.03 | 0.03 | 96 | 1017.3 |
| 20260901101556 | 58 | 329 | 0.0 | 0.0 | 0.01 | 0.01 | 0.01 | 96 | 1017.2 |
| 20260901100056 | 58 | 329 | 0.0 | 0.0 | 0.00 | 0.00 | 0.00 | 95 | 1016.9 |
| 20260901094557 | 58 | 329 | 0.0 | 0.0 | 0.00 | 0.00 | 0.00 | 95 | 1017.0 |
| 20260901093056 | 58 | 329 | 0.0 | 0.0 | 0.00 | 0.00 | 0.00 | 95 | 1017.2 |
| 20260901091556 | 58 | 329 | 0.0 | 0.0 | 0.00 | 0.00 | 0.00 | 95 | 1016.9 |
| 20260901090056 | 58 | 330 | 0.0 | 0.0 | 0.00 | 0.00 | 0.00 | 95 | 1017.0 |
| 20260901084556 | 58 | 330 | 0.0 | 0.0 | 0.00 | 0.00 | 0.00 | 95 | 1017.0 |
| 20260901083055 | 58 | 330 | 0.0 | 0.0 | 0.00 | 0.00 | 0.00 | 95 | 1016.9 |
| 20260901081555 | 58 | 330 | 0.0 | 0.0 | 0.00 | 0.00 | 0.00 | 95 | 1016.9 |
| 20260901080054 | 58 | 330 | 0.0 | 0.0 | 0.00 | 0.00 | 0.00 | 95 | 1017.1 |
| 20260901074551 | 58 | 330 | 0.0 | 0.0 | 0.00 | 0.00 | 0.00 | 95 | 1017.1 |
| 20260901073053 | 58 | 330 | 0.0 | 0.0 | 0.00 | 0.01 | 0.00 | 95 | 1016.9 |